| time (UTC) | temp F | wind direction | speed knots | gust knots | rain 1hr in | rain 24hr in | rain mn in | humidity % | barometer mb |
| 20260507114549 | 40 | 255 | 0.9 | 4.3 | 0.00 | 0.00 | 0.00 | 72 | 1013.3 |
| 20260507113055 | 38 | 282 | 1.7 | 3.5 | 0.00 | 0.00 | 0.00 | 77 | 1013.4 |
| 20260507111548 | 35 | 0 | 0.0 | 1.7 | 0.00 | 0.00 | 0.00 | 85 | 1013.3 |
| 20260507110047 | 36 | 82 | 0.0 | 0.9 | 0.00 | 0.00 | 0.00 | 86 | 1013.3 |
| 20260507104553 | 36 | 88 | 0.0 | 0.9 | 0.00 | 0.00 | 0.00 | 87 | 1013.3 |
| 20260507103049 | 37 | 140 | 0.0 | 1.7 | 0.00 | 0.00 | 0.00 | 82 | 1013.4 |
| 20260507101558 | 37 | 0 | 1.7 | 5.2 | 0.00 | 0.00 | 0.00 | 80 | 1013.3 |
| 20260507100054 | 38 | 277 | 5.2 | 6.1 | 0.00 | 0.00 | 0.00 | 70 | 1013.4 |
| 20260507094554 | 36 | 108 | 0.0 | 0.9 | 0.00 | 0.00 | 0.00 | 86 | 1013.5 |
| 20260507093051 | 36 | 0 | 0.0 | 0.9 | 0.00 | 0.00 | 0.00 | 86 | 1013.5 |
| 20260507091553 | 36 | 0 | 0.0 | 1.7 | 0.00 | 0.00 | 0.00 | 83 | 1013.5 |
| 20260507090054 | 37 | 92 | 0.0 | 1.7 | 0.00 | 0.00 | 0.00 | 81 | 1013.5 |
| 20260507084550 | 36 | 0 | 0.0 | 0.0 | 0.00 | 0.00 | 0.00 | 82 | 1013.5 |
| 20260507083049 | 37 | 0 | 0.0 | 1.7 | 0.00 | 0.00 | 0.00 | 81 | 1013.5 |
| 20260507081549 | 37 | 111 | 0.9 | 1.7 | 0.00 | 0.00 | 0.00 | 82 | 1013.5 |
| 20260507080047 | 37 | 135 | 0.0 | 1.7 | 0.00 | 0.00 | 0.00 | 80 | 1013.7 |
| 20260507074551 | 37 | 97 | 0.0 | 0.9 | 0.00 | 0.00 | 0.00 | 80 | 1013.7 |
| 20260507073125 | 37 | 118 | 0.0 | 0.9 | 0.00 | 0.00 | 0.00 | 79 | 1013.8 |
| 20260507071551 | 38 | 0 | 0.0 | 1.7 | 0.00 | 0.00 | 0.00 | 79 | 1013.9 |
| 20260507070052 | 38 | 107 | 0.9 | 1.7 | 0.00 | 0.00 | 0.00 | 78 | 1014.0 |
| 20260507064607 | 38 | 0 | 0.9 | 1.7 | 0.00 | 0.00 | 0.00 | 76 | 1014.1 |
| 20260507063056 | 39 | 130 | 0.9 | 2.6 | 0.00 | 0.00 | 0.00 | 76 | 1014.2 |
| 20260507061548 | 41 | 0 | 0.0 | 5.2 | 0.00 | 0.00 | 0.00 | 68 | 1014.4 |
| 20260507060057 | 42 | 261 | 3.5 | 6.1 | 0.00 | 0.00 | 0.00 | 59 | 1014.3 |
| 20260507054549 | 42 | 276 | 4.3 | 6.1 | 0.00 | 0.00 | 0.00 | 56 | 1014.4 |
| 20260507053053 | 42 | 281 | 3.5 | 5.2 | 0.00 | 0.00 | 0.00 | 57 | 1014.5 |
| 20260507051550 | 42 | 265 | 3.5 | 5.2 | 0.00 | 0.00 | 0.00 | 55 | 1014.5 |
| 20260507050055 | 43 | 286 | 3.5 | 5.2 | 0.00 | 0.00 | 0.00 | 56 | 1014.6 |
| 20260507044550 | 43 | 295 | 4.3 | 5.2 | 0.00 | 0.00 | 0.00 | 53 | 1014.7 |
| 20260507043051 | 43 | 288 | 2.6 | 4.3 | 0.00 | 0.00 | 0.00 | 57 | 1014.7 |
| 20260507041549 | 43 | 280 | 2.6 | 4.3 | 0.00 | 0.00 | 0.00 | 55 | 1014.9 |
| 20260507040103 | 43 | 304 | 3.5 | 5.2 | 0.00 | 0.00 | 0.00 | 55 | 1015.0 |
| 20260507034610 | 43 | 295 | 3.5 | 5.2 | 0.00 | 0.00 | 0.00 | 54 | 1015.0 |
| 20260507033103 | 42 | 284 | 3.5 | 5.2 | 0.00 | 0.00 | 0.00 | 56 | 1015.0 |
| 20260507031549 | 43 | 298 | 3.5 | 5.2 | 0.00 | 0.00 | 0.00 | 56 | 1015.1 |
| 20260507030050 | 43 | 303 | 4.3 | 6.1 | 0.00 | 0.00 | 0.00 | 54 | 1015.2 |
| 20260507024556 | 43 | 298 | 4.3 | 7.0 | 0.00 | 0.00 | 0.00 | 56 | 1015.2 |
| 20260507023047 | 43 | 298 | 4.3 | 7.0 | 0.00 | 0.00 | 0.00 | 57 | 1015.2 |
| 20260507021555 | 43 | 305 | 4.3 | 7.0 | 0.00 | 0.00 | 0.00 | 55 | 1015.2 |
| 20260507020052 | 43 | 299 | 6.1 | 7.8 | 0.00 | 0.00 | 0.00 | 52 | 1015.3 |
| 20260507014552 | 43 | 307 | 6.1 | 8.7 | 0.00 | 0.00 | 0.00 | 51 | 1015.2 |
| 20260507013103 | 43 | 302 | 7.0 | 9.6 | 0.00 | 0.00 | 0.00 | 54 | 1015.2 |
| 20260507011550 | 43 | 299 | 8.7 | 11.3 | 0.00 | 0.00 | 0.00 | 51 | 1015.3 |
| 20260507010053 | 44 | 291 | 7.0 | 9.6 | 0.00 | 0.00 | 0.00 | 54 | 1015.3 |
| 20260507004551 | 44 | 301 | 8.7 | 15.6 | 0.00 | 0.00 | 0.00 | 51 | 1015.3 |
| 20260507003051 | 44 | 293 | 9.6 | 13.9 | 0.00 | 0.00 | 0.00 | 56 | 1015.4 |
| 20260507001607 | 45 | 294 | 12.2 | 16.5 | 0.00 | 0.00 | 0.00 | 52 | 1015.4 |
| 20260507000051 | 44 | 267 | 10.4 | 17.4 | 0.00 | 0.00 | 0.00 | 54 | 1015.5 |
| 20260506234557 | 44 | 260 | 11.3 | 15.6 | 0.00 | 0.00 | 0.00 | 53 | 1015.3 |
| 20260506233050 | 44 | 284 | 12.2 | 14.8 | 0.00 | 0.00 | 0.00 | 55 | 1015.5 |
| 20260506231549 | 44 | 281 | 13.0 | 16.5 | 0.00 | 0.00 | 0.00 | 55 | 1015.5 |
| 20260506230054 | 44 | 279 | 9.6 | 16.5 | 0.00 | 0.00 | 0.00 | 51 | 1015.5 |
| 20260506224604 | 44 | 291 | 9.6 | 14.8 | 0.00 | 0.00 | 0.00 | 51 | 1015.6 |
| 20260506223049 | 44 | 281 | 10.4 | 14.8 | 0.00 | 0.00 | 0.00 | 54 | 1015.6 |
| 20260506221550 | 43 | 269 | 10.4 | 13.0 | 0.00 | 0.00 | 0.00 | 54 | 1015.8 |